Wind_Speed
27 28 29 30 31 32 33 33 33 33 34 36 37 37 38 39 40 41 42 43 44 45 47 47 48 49 49 49 50 51 51 51 51 51 50 49 49 48
26 27 28 29 30 30 31 31 31 32 33 34 35 36 37 38 39 40 42 43 44 45 46 46 47 47 46 47 48 48 48 48 47 46 46 45 44 43
25 25 26 27 27 28 28 29 30 31 32 34 35 36 37 39 40 42 43 43 44 45 45 45 45 44 45 45 45 44 43 42 41 41 40 40 39 40
23 24 25 26 26 27 27 28 29 30 31 33 35 36 38 39 41 41 42 42 42 43 43 43 43 42 42 42 41 40 39 38 37 37 36 35 35 35
22 23 24 24 25 26 27 28 29 30 32 33 35 36 37 38 39 39 39 39 40 40 40 40 40 39 39 38 36 34 34 33 32 31 30 30 29 28
22 23 24 24 25 26 27 28 29 31 32 33 34 35 36 36 36 37 37 37 37 37 37 36 35 35 33 31 29 28 28 27 27 26 25 24 24 24
22 22 23 24 25 26 27 28 29 30 31 32 32 33 33 34 34 34 34 34 33 33 32 31 30 28 26 25 24 24 24 24 23 22 22 21 21 22
22 22 23 24 25 25 27 27 28 28 29 30 30 31 31 32 31 31 31 30 29 29 27 26 24 23 21 21 22 22 21 21 20 20 20 20 20 20
22 22 22 23 24 25 26 26 27 27 28 28 29 29 29 29 28 28 28 27 25 24 23 21 20 19 18 19 19 19 18 18 18 18 18 19 18 18
21 21 22 23 24 24 24 25 25 26 26 27 27 27 27 26 25 24 23 22 21 19 18 17 16 16 15 16 17 16 16 16 16 16 16 17 17 18
21 21 22 22 23 23 22 23 23 24 24 24 24 24 23 22 22 20 20 19 18 17 16 15 15 14 14 14 15 15 14 14 14 14 15 16 17 18
20 20 20 20 21 21 21 21 22 22 22 21 21 20 20 19 19 18 17 17 16 15 13 12 12 12 12 13 13 13 12 12 13 13 14 16 17 18
18 19 19 19 19 19 19 19 19 19 19 18 18 17 17 17 17 16 16 15 13 12 11 10 10 10 10 10 10 11 11 11 12 13 14 16 17 18
17 18 18 18 17 17 17 17 17 17 16 16 15 15 15 15 15 14 13 12 11 10 9 8 8 8 7 8 9 9 10 10 12 13 14 15 16 18
15 15 16 15 15 15 15 15 15 14 14 14 14 14 14 14 13 12 11 10 10 8 7 7 6 6 6 7 7 8 9 10 11 12 14 15 16 18
14 14 14 13 13 14 13 13 13 13 13 13 13 13 12 12 11 11 10 9 8 7 6 5 5 5 6 6 6 7 8 9 10 12 13 15 16 18
12 12 12 12 12 12 12 12 12 12 12 12 12 11 11 10 10 9 8 7 7 6 5 4 4 5 5 5 6 7 8 9 10 12 13 15 17 18
9 10 10 10 10 10 10 10 11 11 11 11 10 10 9 9 8 7 6 6 5 5 4 4 4 4 4 5 6 7 8 9 11 12 14 15 17 19
8 8 9 9 9 9 9 9 9 10 10 9 9 8 8 8 7 5 5 4 4 4 3 3 4 4 4 5 5 7 8 10 11 13 15 16 18 19
6 7 7 7 7 7 8 8 9 9 8 8 7 7 7 6 5 4 4 3 3 3 2 3 4 4 4 5 6 7 8 10 12 14 16 17 19 20
5 5 6 6 6 6 7 8 8 7 7 6 6 6 5 4 3 3 3 2 2 2 2 3 3 4 4 5 6 7 9 11 12 15 17 18 19 21
5 5 5 6 6 6 6 7 7 6 5 5 5 4 3 2 2 2 2 2 2 2 2 3 3 3 4 5 7 8 10 12 14 15 17 18 20 21
5 5 5 5 6 6 6 6 5 5 4 4 3 3 2 2 2 2 2 2 2 3 3 3 3 4 5 6 7 9 11 13 15 16 18 19 20 21
Wind_Direction
262 264 264 266 269 270 272 274 275 277 279 280 282 284 286 288 290 291 292 293 295 295 295 295 296 296 296 296 296 296 295 294 294 293 292 291 289 286
265 265 267 270 271 271 273 275 276 278 280 282 284 287 289 290 292 293 294 295 295 296 296 297 297 298 298 298 298 297 297 296 296 295 295 294 292 288
267 269 271 273 273 273 274 276 279 280 282 284 287 289 290 292 293 294 295 295 296 297 298 299 299 300 300 300 300 300 300 299 299 299 298 297 295 293
270 273 275 275 275 276 279 281 283 285 286 288 289 290 291 293 294 294 296 297 298 298 299 300 300 301 302 302 302 302 302 302 302 302 301 300 299 298
274 277 278 278 278 279 281 283 284 285 287 289 291 291 293 294 295 297 298 299 299 300 300 301 302 303 304 304 305 305 306 307 308 308 307 306 306 305
276 279 280 280 281 282 284 285 287 288 290 291 292 293 295 296 297 299 299 300 301 301 302 303 304 305 306 308 309 310 312 313 315 315 315 315 315 315
277 279 280 282 283 285 286 287 289 290 292 293 294 296 297 298 299 300 301 302 302 303 304 305 306 308 310 313 315 317 319 320 322 324 325 324 325 325
276 279 282 284 285 286 287 288 290 292 293 295 296 297 298 300 300 301 302 303 303 305 306 307 308 309 313 316 319 322 324 325 327 330 331 332 332 332
276 279 280 281 283 286 289 290 292 295 296 297 298 299 300 300 300 301 302 303 305 306 307 308 309 311 314 319 324 328 330 333 335 337 338 340 343 344
275 278 279 281 285 288 290 292 294 296 297 298 299 300 300 301 301 302 304 305 307 307 308 308 311 313 316 322 327 331 335 338 342 347 349 350 351 353
275 278 281 283 286 288 290 293 295 296 298 299 300 301 301 303 304 304 305 307 307 307 307 309 313 315 317 324 331 335 340 344 348 353 356 358 0 1
275 278 281 283 285 287 291 294 297 299 300 301 303 303 304 306 308 306 308 310 310 309 309 310 314 317 321 327 334 339 344 350 355 359 2 4 6 7
276 278 280 282 285 288 293 296 299 301 302 304 305 307 309 310 311 310 311 312 311 311 311 310 314 319 325 333 341 347 351 357 2 5 8 10 11 12
276 278 280 282 286 290 293 297 300 302 304 305 307 310 312 312 313 313 313 312 310 310 310 312 316 323 333 342 349 354 359 4 7 11 13 14 15 15
277 279 281 283 286 289 293 297 300 302 304 305 308 311 313 314 314 312 312 312 312 311 313 319 324 335 344 352 357 2 7 11 13 15 15 15 15 15
278 279 281 284 287 292 295 299 302 304 304 306 309 312 313 314 314 313 312 314 315 316 318 323 330 339 350 1 7 11 14 15 17 17 16 16 15 14
280 282 285 289 292 295 298 300 302 304 305 307 309 312 314 313 313 312 312 315 318 320 323 329 340 349 359 9 13 15 17 18 17 16 16 14 13 12
285 288 292 294 297 298 300 301 302 303 305 307 308 310 312 313 311 308 309 315 318 322 327 334 342 354 3 9 14 16 17 18 17 15 13 12 11 11
293 297 299 300 300 301 302 303 303 303 305 306 306 308 311 313 311 307 308 315 317 323 332 341 350 359 8 14 16 15 15 15 14 12 9 7 7 6
305 308 308 308 307 306 306 307 306 306 305 306 306 308 311 313 312 312 317 320 326 336 343 349 356 5 11 15 15 14 13 11 9 7 4 3 2 1
317 318 317 314 312 312 312 312 312 311 311 311 312 314 315 317 319 324 333 341 350 354 352 354 0 7 12 13 12 11 9 6 3 1 359 359 358 357
335 332 330 327 324 322 320 320 321 321 320 320 321 324 327 333 347 1 12 21 13 3 359 3 8 11 12 11 8 4 0 358 356 355 355 355 354 354
3 356 353 348 344 340 338 336 336 337 336 335 341 352 4 16 31 45 52 43 26 11 10 13 11 6 4 1 358 356 353 351 350 350 350 350 350 351
Height
5793 5794 5795 5795 5795 5794 5794 5794 5794 5792 5791 5790 5788 5786 5784 5781 5779 5776 5773 5769 5766 5762 5759 5755 5750 5746 5741 5736 5731 5726 5720 5715 5710 5704 5699 5694 5690 5686
5786 5787 5787 5787 5787 5787 5786 5786 5785 5784 5783 5781 5779 5777 5775 5772 5769 5766 5763 5759 5755 5751 5747 5743 5738 5734 5729 5724 5718 5713 5708 5702 5697 5691 5686 5681 5677 5673
5779 5779 5779 5779 5779 5779 5778 5778 5777 5776 5775 5773 5771 5768 5766 5763 5760 5756 5753 5749 5744 5740 5736 5732 5727 5722 5717 5712 5707 5701 5696 5691 5685 5680 5675 5670 5666 5661
5772 5772 5772 5772 5772 5771 5771 5770 5769 5768 5766 5764 5762 5759 5756 5753 5750 5746 5742 5738 5734 5730 5725 5721 5717 5712 5707 5702 5696 5691 5686 5681 5676 5671 5666 5661 5656 5651
5766 5766 5765 5765 5764 5764 5763 5762 5761 5759 5758 5756 5753 5750 5747 5744 5740 5736 5733 5729 5725 5720 5716 5711 5707 5702 5697 5692 5687 5682 5677 5672 5667 5662 5657 5653 5648 5643
5759 5759 5758 5758 5757 5757 5756 5754 5753 5751 5749 5747 5744 5741 5738 5735 5731 5728 5724 5720 5716 5711 5706 5702 5698 5693 5689 5684 5680 5675 5671 5666 5661 5656 5652 5647 5642 5638
5752 5752 5752 5751 5750 5749 5748 5747 5745 5743 5741 5738 5736 5733 5730 5726 5723 5719 5715 5711 5707 5703 5698 5694 5690 5686 5682 5678 5674 5670 5666 5661 5657 5652 5648 5643 5638 5634
5746 5745 5745 5744 5743 5742 5741 5739 5737 5735 5733 5730 5727 5725 5721 5718 5714 5711 5707 5703 5700 5696 5692 5688 5685 5681 5678 5674 5670 5666 5662 5658 5653 5649 5645 5640 5636 5631
5739 5739 5738 5738 5736 5735 5733 5732 5730 5727 5725 5723 5720 5717 5713 5710 5707 5704 5700 5697 5693 5690 5686 5683 5680 5677 5674 5671 5667 5663 5660 5655 5651 5647 5643 5638 5634 5629
5733 5733 5732 5731 5729 5728 5726 5724 5722 5720 5718 5715 5712 5709 5706 5703 5700 5697 5694 5691 5688 5685 5682 5679 5676 5674 5671 5668 5665 5661 5658 5654 5650 5646 5642 5637 5633 5628
5727 5726 5725 5724 5723 5721 5720 5718 5716 5713 5711 5708 5705 5703 5700 5697 5694 5692 5689 5686 5683 5681 5678 5676 5673 5671 5669 5666 5663 5659 5656 5652 5649 5645 5641 5637 5632 5628
5721 5720 5719 5718 5717 5715 5714 5712 5709 5707 5704 5702 5699 5697 5694 5692 5689 5687 5684 5682 5679 5677 5675 5673 5671 5669 5667 5664 5661 5658 5655 5652 5648 5645 5641 5637 5633 5628
5715 5714 5713 5712 5711 5709 5708 5706 5703 5701 5699 5697 5695 5692 5690 5688 5685 5683 5680 5678 5676 5674 5672 5670 5669 5667 5665 5663 5660 5658 5655 5651 5648 5645 5641 5638 5634 5629
5709 5709 5708 5706 5705 5704 5702 5700 5698 5696 5694 5692 5690 5688 5686 5684 5681 5679 5677 5675 5673 5672 5670 5668 5667 5665 5664 5662 5660 5657 5655 5652 5649 5645 5642 5639 5635 5631
5704 5703 5702 5701 5700 5699 5697 5695 5694 5692 5690 5689 5687 5685 5683 5680 5678 5676 5674 5673 5671 5669 5668 5667 5665 5664 5663 5661 5659 5657 5655 5652 5649 5646 5643 5640 5636 5632
5699 5698 5698 5697 5695 5694 5693 5691 5690 5688 5687 5685 5683 5681 5679 5677 5675 5674 5672 5670 5669 5668 5667 5665 5664 5663 5662 5661 5659 5657 5655 5653 5650 5647 5644 5641 5637 5633
5695 5694 5693 5692 5691 5690 5689 5687 5686 5685 5684 5682 5680 5678 5677 5675 5673 5672 5670 5669 5668 5667 5666 5665 5664 5663 5662 5661 5659 5657 5655 5653 5651 5648 5645 5642 5638 5634
5692 5691 5690 5689 5688 5687 5686 5685 5683 5682 5681 5679 5678 5676 5675 5673 5671 5670 5669 5668 5667 5666 5665 5664 5663 5663 5662 5661 5660 5658 5656 5654 5651 5649 5646 5642 5639 5635
5689 5688 5687 5686 5685 5684 5683 5682 5681 5679 5678 5677 5675 5674 5673 5671 5670 5669 5668 5667 5666 5665 5665 5664 5663 5663 5662 5661 5660 5658 5656 5654 5652 5649 5646 5643 5639 5635
5687 5686 5685 5684 5683 5682 5681 5680 5678 5677 5676 5674 5673 5672 5671 5670 5669 5668 5667 5666 5666 5665 5665 5664 5664 5663 5662 5661 5660 5659 5657 5654 5652 5649 5646 5642 5639 5635
5685 5684 5683 5682 5681 5680 5679 5678 5676 5675 5674 5673 5672 5670 5670 5669 5668 5667 5666 5666 5666 5665 5665 5664 5664 5663 5662 5662 5660 5659 5657 5654 5652 5649 5646 5642 5638 5634
5684 5683 5682 5681 5680 5679 5678 5676 5675 5674 5673 5672 5671 5670 5669 5668 5667 5667 5666 5666 5666 5666 5665 5665 5664 5664 5663 5662 5660 5658 5657 5654 5651 5648 5645 5641 5638 5633
5684 5683 5682 5680 5679 5678 5677 5675 5674 5673 5672 5671 5670 5669 5669 5668 5667 5667 5667 5667 5666 5666 5666 5665 5665 5664 5663 5662 5660 5658 5656 5654 5651 5647 5644 5640 5636 5632